[[{"header":{"parameterUnit":"m.s-1","parameterCategory":1,"la1":30.2991,"la2":30.254,"lo1":-89.0895,"lo2":-89.0444,"dy":0.0017,"dx":0.0017,"nx":28,"ny":28,"refTime":"2025-08-21T21:00:00:Z","depth":0,"parameterNumber":2,"parameterNumberName":"U-component_of_WINDS"},"data":[0,0,0,0,0,0,0,0,0,0,0,0,0,0,0,0,0,0,0,0,0,0,0,0,0,0,0,0,0,0,0,0,0,0,0,0,0,0,0,0,0,0,0,0,0,0,0,0,0,0,0,0,0,0,0,0,0,0,1.0242,1.0242,0,1.0292,1.0292,1.0293,1.029,1.0289,1.0288,1.0287,1.0339,1.0341,1.0343,0,0,0,0,0,0,0,0,0,0,0,0,0,1.0144,1.0146,1.0242,1.0243,1.0243,1.0291,1.0292,1.0293,1.029,1.0289,1.0288,1.0287,1.0338,1.0341,1.0343,0,0,0,0,0,0,0,0,0,0,0,0,0,1.019,1.0147,1.0242,1.0247,1.0248,1.0291,1.0292,1.0293,1.029,1.0289,1.0288,1.0287,1.0338,1.0341,1.0344,1.0385,0,0,1.0353,1.0354,0,0,0,0,0,0,0,0,1.0187,1.0193,1.0246,1.0247,1.0248,1.0283,1.0277,1.0324,1.029,1.0274,1.0287,1.0286,1.0321,1.0326,1.0338,1.0387,1.0389,1.0353,1.0355,1.0356,1.0357,0,0,0,0,0,0,0,1.0184,1.0191,1.0262,1.0247,1.0248,1.0247,1.0253,1.0286,1.0303,1.0275,1.0275,1.0281,1.0322,1.0335,1.0339,1.039,1.0353,1.0356,1.0358,1.0359,1.0474,1.0475,0,0,0,0,0,0,1.018,1.0189,1.026,1.0263,1.0214,1.025,1.0256,1.0273,1.0303,1.0306,1.0282,1.0281,1.033,1.0335,1.0341,1.0389,1.0356,1.0359,1.0361,1.0473,1.0474,1.0475,0,0,0,0,0,0,1.0178,1.0186,1.0258,1.0226,1.0235,1.0253,1.0272,1.0275,1.0287,1.0308,1.0311,1.0292,1.0329,1.0336,1.0373,1.0391,1.0361,1.0364,1.0471,1.0473,1.0475,1.0487,0,0,0,0,0,0,1.0175,1.0185,1.0201,1.0226,1.0237,1.029,1.0273,1.0276,1.0293,1.0291,1.0318,1.0321,1.0329,1.0369,1.0376,1.0394,1.0366,1.047,1.0472,1.0474,1.0485,1.0489,1.0492,0,0,0,0,0,1.0171,1.0203,1.0202,1.021,1.0257,1.0291,1.0297,1.0305,1.0294,1.031,1.0323,1.032,1.0388,1.0372,1.0381,1.04,1.0469,1.0471,1.0474,1.0484,1.0488,1.0492,0,0,0,0,0,0,1.018,1.0206,1.0205,1.0246,1.0266,1.029,1.031,1.031,1.0333,1.0331,1.0341,1.0347,1.0383,1.0396,1.0378,1.0441,1.0427,1.0431,1.0431,1.0436,1.0439,1.0435,1.0369,0,0,0,0,0,1.0187,1.0212,1.0234,1.0268,1.0278,1.0292,1.0308,1.0312,1.0333,1.0342,1.0358,1.0378,1.0404,1.0421,1.0446,1.0487,1.0492,1.0505,1.0509,1.0511,1.0515,1.0536,1.0542,1.0484,1.0484,1.0484,0,0,1.0201,1.0218,1.0234,1.027,1.0286,1.0312,1.03,1.0328,1.0347,1.0346,1.0381,1.0394,1.0418,1.0457,1.0475,1.0468,1.0532,1.0515,1.0517,1.0519,1.054,1.0545,1.055,1.0486,1.0486,1.0485,0,0,1.0239,1.0255,1.0285,1.0301,1.0325,1.0334,1.0341,1.0365,1.0373,1.0409,1.0408,1.0431,1.0476,1.0492,1.0507,1.055,1.0549,1.0559,1.0577,1.0598,1.0602,1.0606,1.0621,1.0626,1.0562,1.0562,1.0562,0,1.0253,1.0292,1.03,1.0328,1.0343,1.0343,1.0373,1.0388,1.0419,1.043,1.0422,1.0477,1.0493,1.0535,1.0546,1.0558,1.0566,1.0555,1.0601,1.0605,1.0609,1.0623,1.0628,1.0563,1.0563,1.0563,1.0563,0,1.0308,1.0335,1.0355,1.0384,1.0403,1.0431,1.0443,1.046,1.0463,1.0473,1.0509,1.0528,1.0557,1.0567,1.0571,1.061,1.0605,1.0599,1.0585,1.0615,1.0628,1.0634,1.0564,1.0564,1.0564,1.0564,0,0,1.0352,1.0385,1.0392,1.0405,1.0432,1.0452,1.0481,1.0508,1.0522,1.0544,1.0567,1.0604,1.0599,1.0615,1.062,1.0639,1.067,1.0631,1.0632,1.0636,1.0713,1.0716,1.0722,1.067,1.0671,1.0672,1.0711,0,1.0392,1.0442,1.0449,1.0493,1.0517,1.0518,1.0542,1.0561,1.0571,1.0593,1.0605,1.063,1.0622,1.0632,1.065,1.0663,1.0686,1.066,1.0691,1.0692,1.0683,1.0729,1.0733,1.0768,1.0716,1.0717,1.0717,0,1.0445,1.0467,1.0513,1.0535,1.0545,1.0567,1.0592,1.0614,1.0635,1.0641,1.0658,1.0661,1.069,1.0676,1.0715,1.0698,1.0711,1.0719,1.072,1.0723,1.0706,1.0731,1.078,1.0785,1.0726,1.0725,1.0725,0,1.0471,1.0513,1.0545,1.0556,1.0583,1.0598,1.061,1.063,1.0645,1.0667,1.0677,1.0703,1.0716,1.0736,1.0745,1.0734,1.0784,1.077,1.0789,1.0789,1.0798,1.0797,1.0849,1.0809,1.0809,1.0809,1.0809,0,1.0514,1.0542,1.0557,1.0576,1.0607,1.0616,1.0646,1.0658,1.0675,1.0697,1.07,1.072,1.0732,1.0754,1.0762,1.0793,1.0799,1.0804,1.0806,1.0803,1.0803,1.0811,1.0809,1.081,1.081,1.081,1.081,0,1.0548,1.0559,1.0594,1.0616,1.0623,1.0644,1.0663,1.0682,1.0692,1.072,1.0727,1.0743,1.0769,1.078,1.0813,1.0818,1.0853,1.0853,1.0845,1.0845,1.0863,1.0861,1.0921,1.0928,1.0885,1.0885,1.0886,0,1.0574,1.0595,1.0619,1.0633,1.0646,1.0669,1.0685,1.0694,1.071,1.0735,1.0751,1.0777,1.0798,1.084,1.0854,1.0879,1.0879,1.0898,1.0883,1.0879,1.0878,1.0876,1.0877,1.0901,1.0901,1.0902,1.0902,0,1.0618,1.0622,1.0644,1.0668,1.0686,1.0706,1.0725,1.0736,1.0749,1.0767,1.0793,1.0809,1.0842,1.0867,1.0893,1.0905,1.0905,1.0907,1.0912,1.0909,1.0903,1.0905,1.0852,1.0905,1.0905,1.0905,1.0904,1.0904,1.0647,1.0666,1.0685,1.0709,1.0724,1.0742,1.076,1.0772,1.0795,1.0821,1.0826,1.0853,1.0873,1.0907,1.0921,1.0942,1.0938,1.0946,1.0948,1.0949,1.0949,1.0901,1.0947,1.0947,1.0947,1.0947,1.0947,0,1.069,1.0703,1.0725,1.0751,1.077,1.0768,1.0789,1.0805,1.0829,1.0848,1.0868,1.0898,1.0922,1.0939,1.0963,1.0978,1.0978,1.0984,1.0982,1.0985,1.0953,1.0945,1.0983,1.0983,1.0983,1.0983,1.0983,1.0983,1.0715,1.0745,1.0751,1.0789,1.0802,1.0828,1.084,1.0856,1.087,1.0903,1.0924,1.0934,1.0951,1.0977,1.0999,1.1004,1.1012,1.1017,1.1021,1.0991,1.0987,1.0983,1.0976,1.102,1.102,1.1051,1.1051,1.1051]},{"header":{"parameterUnit":"m.s-1","parameterCategory":1,"la1":30.2991,"la2":30.254,"lo1":-89.0895,"lo2":-89.0444,"dy":0.0017,"dx":0.0017,"nx":28,"ny":28,"refTime":"2025-08-21T21:00:00:Z","depth":0,"parameterNumber":3,"parameterNumberName":"V-component_of_WINDS"},"data":[0,0,0,0,0,0,0,0,0,0,0,0,0,0,0,0,0,0,0,0,0,0,0,0,0,0,0,0,0,0,0,0,0,0,0,0,0,0,0,0,0,0,0,0,0,0,0,0,0,0,0,0,0,0,0,0,0,0,1.1155,1.1155,0,1.1154,1.1154,1.1154,1.1148,1.1148,1.1148,1.1148,1.1146,1.1146,1.1146,0,0,0,0,0,0,0,0,0,0,0,0,0,1.1151,1.1151,1.1155,1.1155,1.1155,1.1154,1.1154,1.1154,1.1148,1.1148,1.1148,1.1148,1.1146,1.1146,1.1146,0,0,0,0,0,0,0,0,0,0,0,0,0,1.1152,1.1151,1.1155,1.1152,1.1152,1.1154,1.1154,1.1154,1.1148,1.1148,1.1148,1.1148,1.1146,1.1146,1.1146,1.1151,0,0,1.1146,1.1146,0,0,0,0,0,0,0,0,1.1152,1.1152,1.1153,1.1152,1.1152,1.1151,1.1152,1.1153,1.1148,1.115,1.1148,1.1148,1.1148,1.1148,1.1148,1.115,1.115,1.1146,1.1146,1.1146,1.1146,0,0,0,0,0,0,0,1.1152,1.1152,1.1155,1.1153,1.1152,1.115,1.115,1.1152,1.115,1.115,1.1149,1.1149,1.1148,1.1148,1.1148,1.115,1.1146,1.1146,1.1146,1.1147,1.1155,1.1155,0,0,0,0,0,0,1.1152,1.1152,1.1155,1.1155,1.1151,1.1151,1.1151,1.1152,1.115,1.1149,1.1149,1.1149,1.1148,1.1148,1.1148,1.1152,1.1146,1.1147,1.1147,1.1155,1.1155,1.1155,0,0,0,0,0,0,1.1152,1.1152,1.1155,1.1153,1.1153,1.1151,1.1152,1.1152,1.1152,1.115,1.1149,1.115,1.1148,1.1148,1.115,1.1152,1.1147,1.1147,1.1155,1.1155,1.1155,1.1161,0,0,0,0,0,0,1.1152,1.1152,1.1155,1.1153,1.1153,1.1157,1.1152,1.1152,1.1152,1.1152,1.115,1.115,1.1147,1.115,1.115,1.1152,1.1147,1.1155,1.1155,1.1155,1.1161,1.1162,1.1163,0,0,0,0,0,1.1152,1.1156,1.1155,1.1155,1.1156,1.1157,1.1157,1.1155,1.1152,1.1154,1.1153,1.115,1.1152,1.115,1.115,1.1152,1.1154,1.1155,1.1155,1.1161,1.1162,1.1163,0,0,0,0,0,0,1.1158,1.1156,1.1154,1.1159,1.1158,1.1157,1.1159,1.1156,1.1156,1.1156,1.1153,1.1152,1.1155,1.1154,1.1152,1.1156,1.1153,1.1153,1.1157,1.1158,1.1158,1.1158,1.1147,0,0,0,0,0,1.116,1.1162,1.116,1.1164,1.1164,1.1161,1.1162,1.116,1.1159,1.1159,1.1157,1.1157,1.1157,1.1157,1.1157,1.1161,1.116,1.1162,1.1163,1.1164,1.1164,1.1165,1.1166,1.1157,1.1157,1.1157,0,0,1.1164,1.1163,1.1164,1.1165,1.1164,1.1166,1.1161,1.1163,1.1164,1.1159,1.1161,1.116,1.1158,1.1161,1.1162,1.116,1.1166,1.1164,1.1165,1.1165,1.1165,1.1166,1.1167,1.1157,1.1157,1.1157,0,0,1.1171,1.1171,1.1174,1.1174,1.1173,1.1171,1.1172,1.117,1.1169,1.1171,1.1167,1.1168,1.1169,1.1168,1.1167,1.1173,1.1171,1.1174,1.1178,1.1179,1.1179,1.118,1.1181,1.1182,1.1174,1.1174,1.1174,0,1.1176,1.1178,1.1176,1.1178,1.1178,1.1174,1.1176,1.1175,1.1175,1.1174,1.1173,1.1173,1.1172,1.1174,1.1175,1.1175,1.1175,1.1174,1.1179,1.118,1.1181,1.1182,1.1183,1.1174,1.1174,1.1174,1.1174,0,1.1184,1.1186,1.1188,1.1187,1.1187,1.119,1.1187,1.1187,1.1185,1.1183,1.1184,1.1183,1.1182,1.1183,1.1181,1.1184,1.1183,1.118,1.1177,1.1182,1.1183,1.1184,1.1175,1.1175,1.1175,1.1175,0,0,1.1196,1.1193,1.1194,1.1193,1.1192,1.1193,1.1194,1.1194,1.1194,1.1193,1.1194,1.1194,1.1192,1.1191,1.1189,1.119,1.1194,1.1187,1.1187,1.1188,1.1196,1.1198,1.1199,1.1192,1.1192,1.1192,1.1196,0,1.1203,1.1206,1.1203,1.1206,1.1207,1.1203,1.1204,1.1202,1.1201,1.1201,1.1198,1.1198,1.1195,1.1195,1.1196,1.1193,1.1195,1.1193,1.1192,1.1192,1.1192,1.12,1.1202,1.1206,1.1197,1.1197,1.1197,0,1.1212,1.1211,1.1214,1.1212,1.1212,1.1213,1.1212,1.1212,1.121,1.1209,1.1208,1.1205,1.1206,1.1202,1.1202,1.1201,1.12,1.1199,1.1199,1.1198,1.1195,1.1199,1.1207,1.1208,1.1198,1.1198,1.1198,0,1.1219,1.122,1.1221,1.1221,1.1218,1.1219,1.1217,1.1216,1.1215,1.1214,1.1213,1.1212,1.1212,1.1211,1.1207,1.1205,1.1207,1.1204,1.1206,1.1206,1.1206,1.1206,1.1214,1.1206,1.1206,1.1206,1.1206,0,1.1227,1.1229,1.1225,1.1226,1.1227,1.1224,1.1225,1.1224,1.1222,1.1222,1.1218,1.1218,1.1214,1.1213,1.121,1.121,1.121,1.1209,1.1208,1.1209,1.1209,1.1208,1.1208,1.1206,1.1206,1.1206,1.1206,0,1.1236,1.1233,1.1235,1.1232,1.1231,1.1232,1.1229,1.123,1.1228,1.1228,1.1227,1.1224,1.1223,1.1219,1.1217,1.1215,1.1216,1.1215,1.1217,1.1216,1.1218,1.1218,1.1225,1.1226,1.1218,1.1218,1.1218,0,1.1241,1.1242,1.1239,1.1239,1.1238,1.1238,1.1238,1.1234,1.1233,1.1231,1.1231,1.123,1.1229,1.1227,1.1224,1.1222,1.1221,1.1223,1.122,1.1221,1.122,1.122,1.122,1.1224,1.1224,1.1224,1.1224,0,1.125,1.1248,1.1248,1.1247,1.1246,1.1245,1.1244,1.1244,1.124,1.1239,1.1238,1.1237,1.1235,1.1233,1.1231,1.1229,1.1226,1.1225,1.1226,1.1227,1.1228,1.1227,1.1218,1.1225,1.1225,1.1225,1.1225,1.1225,1.1257,1.1258,1.1255,1.1255,1.1253,1.1252,1.1252,1.125,1.1249,1.1247,1.1244,1.1244,1.1241,1.1237,1.1235,1.1234,1.1232,1.1233,1.1233,1.1233,1.1233,1.1228,1.1234,1.1234,1.1234,1.1234,1.1234,0,1.1265,1.1264,1.1263,1.1261,1.126,1.1258,1.1256,1.1255,1.1254,1.1252,1.1251,1.1249,1.1248,1.1244,1.1242,1.1241,1.124,1.1241,1.1241,1.124,1.1235,1.1235,1.1242,1.1242,1.1242,1.1242,1.1242,1.1242,1.127,1.127,1.1268,1.1268,1.1266,1.1265,1.1264,1.1263,1.1261,1.1259,1.1258,1.1256,1.1253,1.125,1.1248,1.1247,1.1246,1.1248,1.1246,1.1241,1.1241,1.124,1.124,1.1248,1.1248,1.1251,1.1251,1.1251]}]]